Location: *
(49.4547°N, 7.9131°E)
Time: 20:07:06
(UTC+00:00)

Timation 2 Rocket - Pass Details

Date: 22 September 2019
Orbit: 908 x 1074 km, 70.0° (Epoch: 17 October)

Event Time Altitude Azimuth Distance (km) Brightness Sun altitude
Rises 18:04:22 0° 216° (SW) 3,764 7.5 -6.8°
Reaches altitude 10° 18:07:01 10° 218° (SW) 2,793 6.8 -7.3°
Maximum altitude 18:13:31 71° 303° (WNW) 1,037 4.4 -8.3°
Drops below altitude 10° 18:19:47 10° 28° (NNE) 2,691 6.2 -9.3°
Sets 18:22:17 0° 30° (NNE) 3,618 6.8 -9.7°
